Time,TemperatureF,DewpointF,PressureIn,WindDirection,WindDirectionDegrees,WindSpeedMPH,WindSpeedGustMPH,Humidity,HourlyPrecipIn,Conditions,Clouds,dailyrainin,SolarRadiationWatts/m^2,SoftwareType,DateUTC
2013-01-15 00:00:00,32.4,29.5,30.57,ENE,71,11.3,11.5,89,0.00,OVC,,0.00,0.0,WeatherDisplay:10.37,2013-01-15 08:00:00,
2013-01-15 00:05:00,32.4,29.5,30.57,East,79,9.7,13.8,89,0.00,OVC,,0.00,0.0,WeatherDisplay:10.37,2013-01-15 08:05:00,
2013-01-15 00:10:00,32.4,29.5,30.57,ENE,67,9.3,11.5,89,0.00,OVC,,0.00,0.0,WeatherDisplay:10.37,2013-01-15 08:10:00,
2013-01-15 00:15:00,32.4,29.5,30.57,ENE,65,10.2,11.5,89,0.00,OVC,,0.00,0.0,WeatherDisplay:10.37,2013-01-15 08:15:00,
2013-01-15 00:20:00,32.4,29.5,30.58,East,80,10.1,10.4,89,0.00,OVC,,0.00,0.0,WeatherDisplay:10.37,2013-01-15 08:20:00,
2013-01-15 00:25:00,32.4,29.5,30.57,ENE,62,9.5,12.7,89,0.00,OVC,,0.00,0.0,WeatherDisplay:10.37,2013-01-15 08:25:00,
2013-01-15 00:30:00,32.4,29.5,30.57,ENE,69,8.1,11.5,89,0.00,OVC,,0.00,0.0,WeatherDisplay:10.37,2013-01-15 08:30:00,
2013-01-15 00:35:00,32.4,29.5,30.57,ENE,66,11.9,13.8,89,0.00,OVC,,0.00,0.0,WeatherDisplay:10.37,2013-01-15 08:35:00,
2013-01-15 00:40:00,32.4,29.5,30.58,ENE,69,7.8,13.8,89,0.00,OVC,,0.00,0.0,WeatherDisplay:10.37,2013-01-15 08:40:00,
2013-01-15 00:46:00,32.4,29.5,30.58,ENE,65,12.7,15.0,89,0.00,OVC,,0.00,0.0,WeatherDisplay:10.37,2013-01-15 08:46:00,
2013-01-15 00:51:00,32.4,29.5,30.58,ENE,64,12.3,12.7,89,0.00,OVC,,0.00,0.0,WeatherDisplay:10.37,2013-01-15 08:51:00,
2013-01-15 00:56:00,32.5,29.6,30.58,NE,54,11.7,13.8,89,0.00,OVC,,0.00,0.0,WeatherDisplay:10.37,2013-01-15 08:56:00,
2013-01-15 01:01:00,32.5,29.6,30.58,ENE,59,13.0,13.8,89,0.00,OVC,,0.00,0.0,WeatherDisplay:10.37,2013-01-15 09:01:00,
2013-01-15 01:06:00,32.5,29.6,30.59,ENE,61,13.0,15.0,89,0.00,OVC,,0.00,0.0,WeatherDisplay:10.37,2013-01-15 09:06:00,
2013-01-15 01:11:00,32.5,29.6,30.59,ENE,63,11.7,12.7,89,0.00,OVC,,0.00,0.0,WeatherDisplay:10.37,2013-01-15 09:11:00,
2013-01-15 01:16:00,32.5,29.6,30.59,ENE,59,9.6,11.5,89,0.00,BKN,,0.00,0.0,WeatherDisplay:10.37,2013-01-15 09:16:00,
2013-01-15 01:21:00,32.6,29.7,30.59,ENE,63,12.6,13.8,89,0.00,BKN,,0.00,0.0,WeatherDisplay:10.37,2013-01-15 09:21:00,
2013-01-15 01:26:00,32.5,29.6,30.59,ENE,61,11.4,11.5,89,0.00,BKN,,0.00,0.0,WeatherDisplay:10.37,2013-01-15 09:26:00,
2013-01-15 01:31:00,32.6,29.7,30.59,ENE,78,10.6,12.7,89,0.00,BKN,,0.00,0.0,WeatherDisplay:10.37,2013-01-15 09:31:00,
2013-01-15 01:36:00,32.6,29.7,30.60,ENE,61,11.7,12.7,89,0.00,BKN,,0.00,0.0,WeatherDisplay:10.37,2013-01-15 09:36:00,
2013-01-15 01:41:00,32.6,29.7,30.60,NE,56,11.0,12.7,89,0.00,BKN,,0.00,0.0,WeatherDisplay:10.37,2013-01-15 09:41:00,
2013-01-15 01:46:00,32.6,29.7,30.60,ENE,65,10.5,11.5,89,0.00,OVC,,0.00,0.0,WeatherDisplay:10.37,2013-01-15 09:46:00,
2013-01-15 01:51:00,32.6,29.7,30.60,East,85,10.6,13.8,89,0.00,OVC,,0.00,0.0,WeatherDisplay:10.37,2013-01-15 09:51:00,
2013-01-15 01:56:00,32.6,29.7,30.60,East,83,11.1,13.8,89,0.00,OVC,,0.00,0.0,WeatherDisplay:10.37,2013-01-15 09:56:00,
2013-01-15 02:01:00,32.7,29.8,30.60,ENE,67,12.5,13.8,89,0.00,OVC,,0.00,0.0,WeatherDisplay:10.37,2013-01-15 10:01:00,
2013-01-15 02:06:00,32.7,29.8,30.60,ENE,71,7.9,10.4,89,0.00,OVC,,0.00,0.0,WeatherDisplay:10.37,2013-01-15 10:06:00,
2013-01-15 02:11:00,32.7,29.8,30.60,ENE,69,10.2,11.5,89,0.00,OVC,,0.00,0.0,WeatherDisplay:10.37,2013-01-15 10:11:00,
2013-01-15 02:16:00,32.7,29.8,30.60,ENE,65,13.8,16.1,89,0.00,OVC,,0.00,0.0,WeatherDisplay:10.37,2013-01-15 10:16:00,
2013-01-15 02:21:00,32.7,29.6,30.61,ENE,69,12.9,13.8,88,0.00,OVC,,0.00,0.0,WeatherDisplay:10.37,2013-01-15 10:21:00,
2013-01-15 02:26:00,32.7,29.6,30.61,ENE,73,10.2,12.4,88,0.00,OVC,,0.00,0.0,WeatherDisplay:10.37,2013-01-15 10:26:00,
2013-01-15 02:31:00,32.8,29.7,30.61,ENE,76,12.3,12.7,88,0.00,OVC,,0.00,0.0,WeatherDisplay:10.37,2013-01-15 10:31:00,
2013-01-15 02:36:00,32.8,29.7,30.61,East,80,10.3,13.8,88,0.00,OVC,,0.00,0.0,WeatherDisplay:10.37,2013-01-15 10:36:00,
2013-01-15 02:41:00,32.8,29.7,30.61,ENE,69,10.5,11.5,88,0.00,OVC,,0.00,0.0,WeatherDisplay:10.37,2013-01-15 10:41:00,
2013-01-15 02:46:00,32.8,29.7,30.61,ENE,69,11.1,12.7,88,0.00,OVC,,0.00,0.0,WeatherDisplay:10.37,2013-01-15 10:46:00,
2013-01-15 02:51:00,32.9,29.8,30.61,ENE,58,11.8,12.7,88,0.00,OVC,,0.00,0.0,WeatherDisplay:10.37,2013-01-15 10:51:00,
2013-01-15 02:56:00,32.9,29.8,30.62,ENE,62,11.3,12.4,88,0.00,OVC,,0.00,0.0,WeatherDisplay:10.37,2013-01-15 10:56:00,
2013-01-15 03:01:00,32.9,29.8,30.62,ENE,63,9.9,10.4,88,0.00,OVC,,0.00,0.0,WeatherDisplay:10.37,2013-01-15 11:01:00,
2013-01-15 03:06:00,32.9,29.8,30.62,ENE,63,9.6,12.7,88,0.00,OVC,,0.00,0.0,WeatherDisplay:10.37,2013-01-15 11:06:00,
2013-01-15 03:11:00,33.0,29.9,30.62,ENE,59,10.6,11.5,88,0.00,OVC,,0.00,0.0,WeatherDisplay:10.37,2013-01-15 11:11:00,
2013-01-15 03:16:00,33.0,29.9,30.61,ENE,59,9.4,11.5,88,0.00,OVC,,0.00,0.0,WeatherDisplay:10.37,2013-01-15 11:16:00,
2013-01-15 03:21:00,33.0,29.9,30.61,ENE,73,10.1,11.5,88,0.00,OVC,,0.00,0.0,WeatherDisplay:10.37,2013-01-15 11:21:00,
2013-01-15 03:26:00,33.0,29.9,30.61,NE,55,11.0,11.5,88,0.00,OVC,,0.00,0.0,WeatherDisplay:10.37,2013-01-15 11:26:00,
2013-01-15 03:31:00,33.0,29.9,30.61,ENE,62,8.3,10.2,88,0.00,OVC,,0.00,0.0,WeatherDisplay:10.37,2013-01-15 11:31:00,
2013-01-15 03:36:00,33.0,29.9,30.61,ENE,65,6.7,8.1,88,0.00,OVC,,0.00,0.0,WeatherDisplay:10.37,2013-01-15 11:36:00,
2013-01-15 03:41:00,33.0,29.9,30.61,ENE,65,7.4,10.4,88,0.00,OVC,,0.00,0.0,WeatherDisplay:10.37,2013-01-15 11:41:00,
2013-01-15 03:46:00,33.0,29.9,30.61,ENE,65,8.4,10.4,88,0.00,OVC,,0.00,0.0,WeatherDisplay:10.37,2013-01-15 11:46:00,
2013-01-15 03:51:00,33.0,29.9,30.61,ENE,70,7.3,9.2,88,0.00,OVC,,0.00,0.0,WeatherDisplay:10.37,2013-01-15 11:51:00,
2013-01-15 03:55:00,33.1,30.0,30.61,ENE,60,7.0,14.0,88,0.00,CLR,,0.00,0.0,WeatherDisplay:10.37,2013-01-15 11:55:00,
2013-01-15 03:56:00,33.1,30.0,30.61,ENE,58,9.8,10.4,88,0.00,OVC,,0.00,0.0,WeatherDisplay:10.37,2013-01-15 11:56:00,
2013-01-15 04:01:00,33.1,30.0,30.62,ENE,60,9.6,11.5,88,0.00,OVC,,0.00,0.0,WeatherDisplay:10.37,2013-01-15 12:01:00,
2013-01-15 04:06:00,33.1,30.0,30.62,ENE,65,10.0,12.7,88,0.00,OVC,,0.00,0.0,WeatherDisplay:10.37,2013-01-15 12:06:00,
2013-01-15 04:11:00,33.1,30.0,30.62,NE,56,10.1,11.5,88,0.00,OVC,,0.00,0.0,WeatherDisplay:10.37,2013-01-15 12:11:00,
2013-01-15 04:16:00,33.1,30.0,30.61,ENE,73,11.0,11.5,88,0.00,OVC,,0.00,0.0,WeatherDisplay:10.37,2013-01-15 12:16:00,
2013-01-15 04:21:00,33.1,30.0,30.62,ENE,63,9.4,12.7,88,0.00,OVC,,0.00,0.0,WeatherDisplay:10.37,2013-01-15 12:21:00,
2013-01-15 04:26:00,33.1,30.0,30.62,ENE,73,9.5,11.5,88,0.00,OVC,,0.00,0.0,WeatherDisplay:10.37,2013-01-15 12:26:00,
2013-01-15 04:31:00,33.1,30.0,30.62,NE,48,10.9,11.3,88,0.00,OVC,,0.00,0.0,WeatherDisplay:10.37,2013-01-15 12:31:00,
2013-01-15 04:36:00,33.1,30.0,30.62,NE,55,12.5,13.8,88,0.00,OVC,,0.00,0.0,WeatherDisplay:10.37,2013-01-15 12:36:00,
2013-01-15 04:41:00,33.1,30.0,30.61,ENE,77,9.5,9.5,88,0.00,OVC,,0.00,0.0,WeatherDisplay:10.37,2013-01-15 12:41:00,
2013-01-15 04:46:00,33.1,30.0,30.61,ENE,67,9.6,13.8,88,0.00,,,0.00,0.0,WeatherDisplay:10.37,2013-01-15 12:46:00,
2013-01-15 04:51:00,33.1,30.0,30.61,ENE,59,12.1,13.6,88,0.00,OVC,,0.00,0.0,WeatherDisplay:10.37,2013-01-15 12:51:00,
2013-01-15 04:58:00,33.1,30.0,30.62,East,79,9.9,11.5,88,0.00,OVC,,0.00,0.0,WeatherDisplay:10.37,2013-01-15 12:58:00,
2013-01-15 05:03:00,33.1,30.0,30.62,ENE,71,7.4,11.5,88,0.00,OVC,,0.00,0.0,WeatherDisplay:10.37,2013-01-15 13:03:00,
2013-01-15 05:08:00,33.1,30.0,30.62,ENE,58,10.3,12.4,88,0.00,OVC,,0.00,0.0,WeatherDisplay:10.37,2013-01-15 13:08:00,
2013-01-15 05:13:00,33.1,30.0,30.62,ENE,67,9.9,12.7,88,0.00,OVC,,0.00,0.0,WeatherDisplay:10.37,2013-01-15 13:13:00,
2013-01-15 05:18:00,33.1,30.0,30.62,ENE,66,8.2,10.2,88,0.00,OVC,,0.00,0.0,WeatherDisplay:10.37,2013-01-15 13:18:00,
2013-01-15 05:23:00,33.1,30.0,30.61,ENE,59,10.4,10.4,88,0.00,OVC,,0.00,0.0,WeatherDisplay:10.37,2013-01-15 13:23:00,
2013-01-15 05:28:00,33.0,29.9,30.61,ENE,73,10.0,10.4,88,0.00,OVC,,0.00,0.0,WeatherDisplay:10.37,2013-01-15 13:28:00,
2013-01-15 05:33:00,33.1,30.0,30.62,ENE,75,9.6,11.5,88,0.00,OVC,,0.00,0.0,WeatherDisplay:10.37,2013-01-15 13:33:00,
2013-01-15 05:38:00,33.0,29.9,30.62,ENE,62,7.4,10.4,88,0.00,OVC,,0.00,0.0,WeatherDisplay:10.37,2013-01-15 13:38:00,
2013-01-15 05:44:00,33.0,29.9,30.62,ENE,75,8.6,11.5,88,0.00,OVC,,0.00,0.0,WeatherDisplay:10.37,2013-01-15 13:44:00,
2013-01-15 05:49:00,33.0,29.9,30.62,ENE,77,10.6,11.5,88,0.00,OVC,,0.00,0.0,WeatherDisplay:10.37,2013-01-15 13:49:00,
2013-01-15 05:54:00,33.0,29.9,30.62,ENE,68,9.2,11.5,88,0.00,OVC,,0.00,0.0,WeatherDisplay:10.37,2013-01-15 13:54:00,
2013-01-15 05:59:00,33.0,29.9,30.62,ENE,59,13.3,13.8,88,0.00,OVC,,0.00,0.0,WeatherDisplay:10.37,2013-01-15 13:59:00,
2013-01-15 06:04:00,33.0,29.9,30.62,ENE,67,11.1,12.7,88,0.00,OVC,,0.00,0.0,WeatherDisplay:10.37,2013-01-15 14:04:00,
2013-01-15 06:09:00,33.0,29.9,30.62,ENE,65,12.8,15.0,88,0.00,OVC,,0.00,0.0,WeatherDisplay:10.37,2013-01-15 14:09:00,
2013-01-15 06:14:00,33.0,29.9,30.62,ENE,68,10.8,12.7,88,0.00,OVC,,0.00,0.0,WeatherDisplay:10.37,2013-01-15 14:14:00,
2013-01-15 06:19:00,33.1,30.0,30.62,ENE,68,11.5,13.8,88,0.00,OVC,,0.00,0.0,WeatherDisplay:10.37,2013-01-15 14:19:00,
2013-01-15 06:24:00,33.1,30.0,30.62,ENE,68,10.7,13.8,88,0.00,OVC,,0.00,0.0,WeatherDisplay:10.37,2013-01-15 14:24:00,
2013-01-15 06:29:00,33.1,30.0,30.63,ENE,65,9.0,10.4,88,0.00,OVC,,0.00,0.0,WeatherDisplay:10.37,2013-01-15 14:29:00,
2013-01-15 06:34:00,33.2,30.1,30.63,ENE,73,10.7,12.7,88,0.00,OVC,,0.00,0.0,WeatherDisplay:10.37,2013-01-15 14:34:00,
2013-01-15 06:39:00,33.2,30.1,30.63,ENE,75,9.7,10.4,88,0.00,OVC,,0.00,0.0,WeatherDisplay:10.37,2013-01-15 14:39:00,
2013-01-15 06:44:00,33.2,30.1,30.63,ENE,66,9.5,11.5,88,0.00,OVC,,0.00,0.0,WeatherDisplay:10.37,2013-01-15 14:44:00,
2013-01-15 06:49:00,33.2,30.1,30.64,ENE,57,9.0,11.5,88,0.00,OVC,,0.00,0.0,WeatherDisplay:10.37,2013-01-15 14:49:00,
2013-01-15 06:54:00,33.3,30.1,30.64,ENE,59,10.1,11.5,88,0.00,OVC,,0.00,0.0,WeatherDisplay:10.37,2013-01-15 14:54:00,
2013-01-15 06:59:00,33.3,30.1,30.64,ENE,73,7.8,10.4,88,0.00,OVC,,0.00,0.0,WeatherDisplay:10.37,2013-01-15 14:59:00,
2013-01-15 07:04:00,33.3,30.1,30.64,ENE,57,11.9,14.7,88,0.00,OVC,,0.00,0.0,WeatherDisplay:10.37,2013-01-15 15:04:00,
2013-01-15 07:09:00,33.3,30.1,30.64,ENE,71,12.5,13.8,88,0.00,OVC,,0.00,0.0,WeatherDisplay:10.37,2013-01-15 15:09:00,
2013-01-15 07:14:00,33.3,30.1,30.64,NE,55,8.8,11.5,88,0.00,OVC,,0.00,0.0,WeatherDisplay:10.37,2013-01-15 15:14:00,
2013-01-15 07:19:00,33.3,29.9,30.65,ENE,57,8.7,10.4,87,0.00,OVC,,0.00,0.0,WeatherDisplay:10.37,2013-01-15 15:19:00,
2013-01-15 07:24:00,33.3,29.9,30.65,ENE,57,9.1,11.5,87,0.00,OVC,,0.00,0.0,WeatherDisplay:10.37,2013-01-15 15:24:00,
2013-01-15 07:29:00,33.3,29.9,30.65,ENE,64,8.2,10.4,87,0.00,OVC,,0.00,0.0,WeatherDisplay:10.37,2013-01-15 15:29:00,
2013-01-15 07:34:00,33.3,29.9,30.65,NE,55,11.0,12.7,87,0.00,OVC,,0.00,0.0,WeatherDisplay:10.37,2013-01-15 15:34:00,
2013-01-15 07:39:00,33.3,29.9,30.65,ENE,67,11.6,11.6,87,0.00,OVC,,0.00,0.0,WeatherDisplay:10.37,2013-01-15 15:39:00,
2013-01-15 07:44:00,33.4,30.0,30.65,ENE,65,8.9,13.8,87,0.00,OVC,,0.00,0.0,WeatherDisplay:10.37,2013-01-15 15:44:00,
2013-01-15 07:49:00,33.4,30.0,30.65,ENE,63,8.3,10.2,87,0.00,OVC,,0.00,0.0,WeatherDisplay:10.37,2013-01-15 15:49:00,
2013-01-15 07:54:00,33.4,30.0,30.66,ENE,69,10.2,11.5,87,0.00,OVC,,0.00,5.8,WeatherDisplay:10.37,2013-01-15 15:54:00,
2013-01-15 07:59:00,33.4,30.0,30.66,ENE,70,10.5,13.8,87,0.00,OVC,,0.00,5.8,WeatherDisplay:10.37,2013-01-15 15:59:00,
2013-01-15 08:04:00,33.5,30.1,30.66,ENE,69,9.9,12.7,87,0.00,OVC,,0.00,5.8,WeatherDisplay:10.37,2013-01-15 16:04:00,
2013-01-15 08:09:00,33.5,30.1,30.66,ENE,72,8.8,10.4,87,0.00,OVC,,0.00,8.0,WeatherDisplay:10.37,2013-01-15 16:09:00,
2013-01-15 08:14:00,33.5,30.1,30.67,ENE,69,8.9,10.4,87,0.00,OVC,,0.00,8.0,WeatherDisplay:10.37,2013-01-15 16:14:00,
2013-01-15 08:19:00,33.5,30.1,30.67,ENE,68,7.7,8.1,87,0.00,OVC,,0.00,12.6,WeatherDisplay:10.37,2013-01-15 16:19:00,
2013-01-15 08:24:00,33.5,30.1,30.67,ENE,71,6.7,8.1,87,0.00,OVC,,0.00,16.1,WeatherDisplay:10.37,2013-01-15 16:24:00,
2013-01-15 08:29:00,33.6,30.2,30.67,ENE,70,7.6,8.1,87,0.00,OVC,,0.00,18.4,WeatherDisplay:10.37,2013-01-15 16:29:00,
2013-01-15 08:34:00,33.6,30.2,30.67,ENE,65,7.3,10.4,87,0.00,OVC,,0.00,18.4,WeatherDisplay:10.37,2013-01-15 16:34:00,
2013-01-15 08:39:00,33.7,30.3,30.67,ENE,76,8.4,11.5,87,0.00,OVC,,0.00,20.7,WeatherDisplay:10.37,2013-01-15 16:39:00,
2013-01-15 08:44:00,33.7,30.3,30.67,ENE,74,7.5,10.4,87,0.00,OVC,,0.00,24.2,WeatherDisplay:10.37,2013-01-15 16:44:00,
2013-01-15 08:49:00,33.7,30.3,30.67,ENE,57,11.3,11.3,87,0.00,OVC,,0.00,36.8,WeatherDisplay:10.37,2013-01-15 16:49:00,
2013-01-15 08:54:00,33.8,30.4,30.68,NE,55,10.8,12.7,87,0.00,OVC,,0.00,42.6,WeatherDisplay:10.37,2013-01-15 16:54:00,
2013-01-15 08:59:00,33.8,30.4,30.67,ENE,67,9.3,12.7,87,0.00,OVC,,0.00,44.8,WeatherDisplay:10.37,2013-01-15 16:59:00,
2013-01-15 09:04:00,33.9,30.5,30.68,ENE,67,8.4,11.5,87,0.00,OVC,,0.00,50.6,WeatherDisplay:10.37,2013-01-15 17:04:00,
2013-01-15 09:09:00,33.9,30.5,30.68,ENE,74,6.6,10.4,87,0.00,OVC,,0.00,52.9,WeatherDisplay:10.37,2013-01-15 17:09:00,
2013-01-15 09:14:00,34.0,30.6,30.68,ENE,66,8.6,8.6,87,0.00,OVC,,0.00,56.4,WeatherDisplay:10.37,2013-01-15 17:14:00,
2013-01-15 09:19:00,34.1,30.7,30.68,ENE,78,6.4,9.2,87,0.00,OVC,,0.00,58.7,WeatherDisplay:10.37,2013-01-15 17:19:00,
2013-01-15 09:24:00,34.2,30.8,30.68,ENE,65,5.6,6.9,87,0.00,OVC,,0.00,64.4,WeatherDisplay:10.37,2013-01-15 17:24:00,
2013-01-15 09:29:00,34.3,30.9,30.68,ENE,75,5.4,6.9,87,0.00,OVC,,0.00,66.7,WeatherDisplay:10.37,2013-01-15 17:29:00,
2013-01-15 09:34:00,34.4,31.0,30.68,ENE,71,6.1,7.9,87,0.00,OVC,,0.00,72.4,WeatherDisplay:10.37,2013-01-15 17:34:00,
2013-01-15 09:39:00,34.5,31.0,30.68,ENE,67,7.3,8.1,87,0.00,OVC,,0.00,74.8,WeatherDisplay:10.37,2013-01-15 17:39:00,
2013-01-15 09:44:00,34.6,31.1,30.68,ENE,73,6.5,10.4,87,0.00,OVC,,0.00,90.8,WeatherDisplay:10.37,2013-01-15 17:44:00,
2013-01-15 09:49:00,34.6,31.1,30.68,East,82,6.1,6.9,87,0.00,OVC,,0.00,88.6,WeatherDisplay:10.37,2013-01-15 17:49:00,
2013-01-15 09:54:00,34.8,31.3,30.68,East,80,4.7,5.8,87,0.00,OVC,,0.00,98.9,WeatherDisplay:10.37,2013-01-15 17:54:00,
2013-01-15 09:59:00,34.9,31.4,30.68,ENE,67,5.6,6.9,87,0.00,OVC,,0.00,98.9,WeatherDisplay:10.37,2013-01-15 17:59:00,
2013-01-15 10:04:00,35.0,31.5,30.68,ENE,75,3.8,4.6,87,0.00,OVC,,0.00,109.2,WeatherDisplay:10.37,2013-01-15 18:04:00,
2013-01-15 10:09:00,35.0,31.5,30.68,ENE,67,4.9,4.9,87,0.00,OVC,,0.00,112.7,WeatherDisplay:10.37,2013-01-15 18:09:00,
2013-01-15 10:14:00,35.2,31.5,30.69,ENE,68,5.7,6.9,86,0.00,OVC,,0.00,115.0,WeatherDisplay:10.37,2013-01-15 18:14:00,
2013-01-15 10:19:00,35.3,31.6,30.69,ENE,71,4.5,5.8,86,0.00,OVC,,0.00,117.3,WeatherDisplay:10.37,2013-01-15 18:19:00,
2013-01-15 10:24:00,35.4,31.6,30.69,NE,55,4.4,5.8,86,0.00,OVC,,0.00,125.4,WeatherDisplay:10.37,2013-01-15 18:24:00,
2013-01-15 10:29:00,35.5,31.7,30.70,ENE,64,4.7,5.8,86,0.00,OVC,,0.00,133.4,WeatherDisplay:10.37,2013-01-15 18:29:00,
2013-01-15 10:34:00,35.6,31.8,30.70,ENE,73,3.3,4.6,86,0.00,OVC,,0.00,147.2,WeatherDisplay:10.37,2013-01-15 18:34:00,
2013-01-15 10:39:00,35.8,32.0,30.69,ENE,73,0.9,3.5,86,0.00,OVC,,0.00,157.6,WeatherDisplay:10.37,2013-01-15 18:39:00,
2013-01-15 10:44:00,35.9,32.1,30.69,ENE,73,2.3,2.3,86,0.00,OVC,,0.00,171.4,WeatherDisplay:10.37,2013-01-15 18:44:00,
2013-01-15 10:49:00,36.0,32.2,30.70,East,81,2.3,3.5,86,0.00,OVC,,0.00,220.8,WeatherDisplay:10.37,2013-01-15 18:49:00,
2013-01-15 10:54:00,36.3,32.5,30.69,East,81,2.3,3.5,86,0.00,OVC,,0.00,301.3,WeatherDisplay:10.37,2013-01-15 18:54:00,
2013-01-15 10:59:00,36.6,32.8,30.69,East,84,4.2,4.6,86,0.00,OVC,,0.00,418.6,WeatherDisplay:10.37,2013-01-15 18:59:00,
2013-01-15 11:04:00,37.2,33.4,30.70,East,95,3.9,4.6,86,0.00,OVC,,0.00,426.7,WeatherDisplay:10.37,2013-01-15 19:04:00,
2013-01-15 11:09:00,37.7,33.9,30.69,East,96,1.7,4.6,86,0.00,OVC,,0.00,179.4,WeatherDisplay:10.37,2013-01-15 19:09:00,
2013-01-15 11:14:00,38.1,33.7,30.70,East,96,1.4,3.5,84,0.00,OVC,,0.00,171.4,WeatherDisplay:10.37,2013-01-15 19:14:00,
2013-01-15 11:20:00,38.4,34.0,30.70,ENE,59,3.7,5.8,84,0.00,OVC,,0.00,242.7,WeatherDisplay:10.37,2013-01-15 19:20:00,
2013-01-15 11:25:00,38.8,34.4,30.70,East,80,5.7,6.9,84,0.00,OVC,,0.00,480.7,WeatherDisplay:10.37,2013-01-15 19:25:00,
2013-01-15 11:30:00,39.4,34.7,30.70,SE,127,3.8,5.8,83,0.00,OVC,,0.00,509.5,WeatherDisplay:10.37,2013-01-15 19:30:00,
2013-01-15 11:35:00,40.0,35.0,30.69,ESE,118,4.8,5.8,82,0.00,OVC,,0.00,483.0,WeatherDisplay:10.37,2013-01-15 19:35:00,
2013-01-15 11:40:00,40.7,35.3,30.68,SE,133,5.1,5.8,81,0.00,OVC,,0.00,538.2,WeatherDisplay:10.37,2013-01-15 19:40:00,
2013-01-15 11:45:00,41.1,35.4,30.68,SE,127,6.2,6.9,80,0.00,OVC,,0.00,557.8,WeatherDisplay:10.37,2013-01-15 19:45:00,
2013-01-15 11:50:00,41.6,35.6,30.69,SE,131,4.9,5.8,79,0.00,OVC,,0.00,296.7,WeatherDisplay:10.37,2013-01-15 19:50:00,
2013-01-15 11:55:00,41.6,34.6,30.69,SE,127,3.0,7.0,76,0.00,OVC,,0.00,236.9,WeatherDisplay:10.37,2013-01-15 19:55:00,
2013-01-15 12:00:00,41.1,34.1,30.69,SE,131,4.1,4.6,76,0.00,OVC,,0.00,216.2,WeatherDisplay:10.37,2013-01-15 20:00:00,
2013-01-15 12:05:00,40.7,34.1,30.69,SE,136,3.7,4.6,77,0.00,OVC,,0.00,216.2,WeatherDisplay:10.37,2013-01-15 20:05:00,
2013-01-15 12:10:00,40.4,33.8,30.68,SE,136,0.6,2.3,77,0.00,OVC,,0.00,238.0,WeatherDisplay:10.37,2013-01-15 20:10:00,
2013-01-15 12:15:00,40.3,34.0,30.68,SE,137,2.7,4.6,78,0.00,OVC,,0.00,301.3,WeatherDisplay:10.37,2013-01-15 20:15:00,
2013-01-15 12:20:00,40.3,34.3,30.68,SE,138,4.2,4.6,79,0.00,BKN,,0.00,373.7,WeatherDisplay:10.37,2013-01-15 20:20:00,
2013-01-15 12:25:00,40.3,34.3,30.68,SE,138,3.9,4.6,79,0.00,BKN,,0.00,312.8,WeatherDisplay:10.37,2013-01-15 20:25:00,
2013-01-15 12:30:00,40.4,34.7,30.68,SE,138,1.3,1.3,80,0.00,BKN,,0.00,325.5,WeatherDisplay:10.37,2013-01-15 20:30:00,
2013-01-15 12:35:00,40.6,34.9,30.68,SE,138,2.0,3.0,80,0.00,BKN,,0.00,309.4,WeatherDisplay:10.37,2013-01-15 20:35:00,
2013-01-15 12:40:00,40.7,34.7,30.68,SE,137,1.3,3.5,79,0.00,BKN,,0.00,250.7,WeatherDisplay:10.37,2013-01-15 20:40:00,
2013-01-15 12:45:00,40.8,34.5,30.68,SE,139,2.2,3.5,78,0.00,BKN,,0.00,234.6,WeatherDisplay:10.37,2013-01-15 20:45:00,
2013-01-15 12:50:00,40.7,34.1,30.68,SE,140,4.0,4.6,77,0.00,OVC,,0.00,210.4,WeatherDisplay:10.37,2013-01-15 20:50:00,
2013-01-15 12:55:00,40.7,34.1,30.67,SE,136,2.6,3.5,77,0.00,OVC,,0.00,213.9,WeatherDisplay:10.37,2013-01-15 20:55:00,
2013-01-15 13:00:00,40.7,34.4,30.67,SE,136,2.5,3.5,78,0.00,OVC,,0.00,232.3,WeatherDisplay:10.37,2013-01-15 21:00:00,
2013-01-15 13:05:00,40.8,34.2,30.67,ESE,121,3.3,4.6,77,0.00,OVC,,0.00,228.9,WeatherDisplay:10.37,2013-01-15 21:05:00,
2013-01-15 13:10:00,40.9,34.6,30.67,ESE,109,1.7,3.5,78,0.00,OVC,,0.00,256.4,WeatherDisplay:10.37,2013-01-15 21:10:00,
2013-01-15 13:15:00,41.0,34.4,30.68,ESE,109,0.0,1.1,77,0.00,OVC,,0.00,196.6,WeatherDisplay:10.37,2013-01-15 21:15:00,
2013-01-15 13:20:00,41.0,34.0,30.68,ESE,109,0.0,1.1,76,0.00,OVC,,0.00,228.9,WeatherDisplay:10.37,2013-01-15 21:20:00,
2013-01-15 13:25:00,41.0,34.0,30.68,SSW,196,0.0,0.0,76,0.00,OVC,,0.00,202.4,WeatherDisplay:10.37,2013-01-15 21:25:00,
2013-01-15 13:30:00,41.0,33.7,30.68,SSW,211,0.3,1.1,75,0.00,OVC,,0.00,224.2,WeatherDisplay:10.37,2013-01-15 21:30:00,
2013-01-15 13:35:00,41.0,33.4,30.68,SW,231,2.2,3.5,74,0.00,OVC,,0.00,274.8,WeatherDisplay:10.37,2013-01-15 21:35:00,
2013-01-15 13:40:00,41.0,33.4,30.68,SW,231,0.5,1.1,74,0.00,OVC,,0.00,212.7,WeatherDisplay:10.37,2013-01-15 21:40:00,
2013-01-15 13:45:00,41.0,33.4,30.68,WNW,282,0.0,0.0,74,0.00,OVC,,0.00,232.3,WeatherDisplay:10.37,2013-01-15 21:45:00,
2013-01-15 13:50:00,41.1,33.5,30.68,WNW,282,0.0,0.0,74,0.00,BKN,,0.00,271.4,WeatherDisplay:10.37,2013-01-15 21:50:00,
2013-01-15 13:55:00,41.3,33.7,30.67,WNW,282,0.0,0.0,74,0.00,BKN,,0.00,434.7,WeatherDisplay:10.37,2013-01-15 21:55:00,
2013-01-15 14:00:00,41.4,33.8,30.67,WNW,282,0.0,0.0,74,0.00,BKN,,0.00,299.0,WeatherDisplay:10.37,2013-01-15 22:00:00,
2013-01-15 14:05:00,41.6,33.9,30.67,WNW,282,0.0,0.0,74,0.00,BKN,,0.00,165.6,WeatherDisplay:10.37,2013-01-15 22:05:00,
2013-01-15 14:10:00,41.7,33.7,30.67,WNW,282,0.0,0.0,73,0.00,BKN,,0.00,173.6,WeatherDisplay:10.37,2013-01-15 22:10:00,
2013-01-15 14:15:00,41.7,33.7,30.68,WNW,282,0.0,0.0,73,0.00,BKN,,0.00,230.0,WeatherDisplay:10.37,2013-01-15 22:15:00,
2013-01-15 14:20:00,41.7,33.7,30.68,WNW,282,0.0,0.0,73,0.00,OVC,,0.00,146.1,WeatherDisplay:10.37,2013-01-15 22:20:00,
2013-01-15 14:25:00,41.7,33.7,30.68,WNW,282,0.0,0.0,73,0.00,OVC,,0.00,146.1,WeatherDisplay:10.37,2013-01-15 22:25:00,
2013-01-15 14:30:00,41.6,33.3,30.68,WNW,282,0.0,0.0,72,0.00,OVC,,0.00,194.4,WeatherDisplay:10.37,2013-01-15 22:30:00,
2013-01-15 14:35:00,41.6,33.6,30.68,WNW,282,0.0,0.0,73,0.00,OVC,,0.00,112.7,WeatherDisplay:10.37,2013-01-15 22:35:00,
2013-01-15 14:40:00,41.6,33.3,30.68,WNW,282,0.0,0.0,72,0.00,OVC,,0.00,111.6,WeatherDisplay:10.37,2013-01-15 22:40:00,
2013-01-15 14:45:00,41.6,33.3,30.68,WNW,282,0.0,0.0,72,0.00,OVC,,0.00,109.2,WeatherDisplay:10.37,2013-01-15 22:45:00,
2013-01-15 14:50:00,41.4,33.1,30.68,WNW,282,0.0,0.0,72,0.00,OVC,,0.00,103.5,WeatherDisplay:10.37,2013-01-15 22:50:00,
2013-01-15 14:55:00,41.3,33.0,30.68,WNW,282,0.0,0.0,72,0.00,OVC,,0.00,106.9,WeatherDisplay:10.37,2013-01-15 22:55:00,
2013-01-15 15:00:00,41.1,33.1,30.68,WNW,282,0.0,0.0,73,0.00,OVC,,0.00,109.2,WeatherDisplay:10.37,2013-01-15 23:00:00,
2013-01-15 15:08:00,40.7,33.1,30.68,West,281,1.1,2.2,74,0.00,OVC,,0.00,112.7,WeatherDisplay:10.37,2013-01-15 23:08:00,
2013-01-15 15:13:00,40.5,32.9,30.68,West,281,0.0,0.0,74,0.00,OVC,,0.00,117.3,WeatherDisplay:10.37,2013-01-15 23:13:00,
2013-01-15 15:18:00,40.4,33.1,30.68,West,281,0.0,0.0,75,0.00,OVC,,0.00,103.5,WeatherDisplay:10.37,2013-01-15 23:18:00,
2013-01-15 15:23:00,40.2,32.9,30.68,West,281,0.4,2.2,75,0.00,OVC,,0.00,101.2,WeatherDisplay:10.37,2013-01-15 23:23:00,
2013-01-15 15:28:00,40.1,33.2,30.68,West,263,0.0,0.0,76,0.00,OVC,,0.00,88.6,WeatherDisplay:10.37,2013-01-15 23:28:00,
2013-01-15 15:33:00,40.0,33.1,30.68,West,263,0.0,0.0,76,0.00,OVC,,0.00,79.4,WeatherDisplay:10.37,2013-01-15 23:33:00,
2013-01-15 15:38:00,39.9,33.0,30.68,West,263,0.8,1.1,76,0.00,OVC,,0.00,74.8,WeatherDisplay:10.37,2013-01-15 23:38:00,
2013-01-15 15:43:00,39.7,32.8,30.68,SW,225,0.1,2.3,76,0.00,OVC,,0.00,64.4,WeatherDisplay:10.37,2013-01-15 23:43:00,
2013-01-15 15:48:00,39.6,32.7,30.68,SW,225,0.0,1.1,76,0.00,OVC,,0.00,54.0,WeatherDisplay:10.37,2013-01-15 23:48:00,
2013-01-15 15:54:00,39.5,32.9,30.68,SW,225,1.2,2.3,77,0.00,OVC,,0.00,44.8,WeatherDisplay:10.37,2013-01-15 23:54:00,
2013-01-15 15:59:00,39.4,32.8,30.68,South,187,1.8,2.3,77,0.00,OVC,,0.00,37.9,WeatherDisplay:10.37,2013-01-15 23:59:00,
2013-01-15 16:04:00,39.3,32.7,30.68,SSE,150,1.8,2.3,77,0.00,OVC,,0.00,34.5,WeatherDisplay:10.37,2013-01-16 00:04:00,
2013-01-15 16:09:00,39.2,32.6,30.68,SSE,150,0.2,1.1,77,0.00,OVC,,0.00,29.9,WeatherDisplay:10.37,2013-01-16 00:09:00,
2013-01-15 16:14:00,39.1,32.5,30.68,SE,133,3.5,3.5,77,0.00,OVC,,0.00,24.2,WeatherDisplay:10.37,2013-01-16 00:14:00,
2013-01-15 16:19:00,39.0,32.4,30.68,SE,130,2.9,3.5,77,0.00,OVC,,0.00,20.7,WeatherDisplay:10.37,2013-01-16 00:19:00,
2013-01-15 16:24:00,38.8,32.2,30.68,SE,130,0.0,0.0,77,0.00,OVC,,0.00,16.1,WeatherDisplay:10.37,2013-01-16 00:24:00,
2013-01-15 16:29:00,38.7,32.1,30.68,SE,130,0.0,1.1,77,0.00,OVC,,0.00,13.8,WeatherDisplay:10.37,2013-01-16 00:29:00,
2013-01-15 16:34:00,38.6,32.0,30.68,SE,130,0.0,0.0,77,0.00,OVC,,0.00,12.6,WeatherDisplay:10.37,2013-01-16 00:34:00,
2013-01-15 16:39:00,38.4,31.8,30.68,SE,130,0.0,0.0,77,0.00,OVC,,0.00,10.4,WeatherDisplay:10.37,2013-01-16 00:39:00,
2013-01-15 16:44:00,38.3,31.7,30.68,SE,130,0.0,0.0,77,0.00,OVC,,0.00,8.0,WeatherDisplay:10.37,2013-01-16 00:44:00,
2013-01-15 16:49:00,38.2,31.6,30.68,SE,130,0.3,1.1,77,0.00,OVC,,0.00,5.8,WeatherDisplay:10.37,2013-01-16 00:49:00,
2013-01-15 16:54:00,38.0,31.4,30.68,SE,130,0.0,0.0,77,0.00,OVC,,0.00,5.8,WeatherDisplay:10.37,2013-01-16 00:54:00,
2013-01-15 16:59:00,37.8,31.6,30.68,SE,130,0.0,0.0,78,0.00,OVC,,0.00,0.0,WeatherDisplay:10.37,2013-01-16 00:59:00,
2013-01-15 17:04:00,37.7,31.5,30.68,SE,130,2.1,2.3,78,0.00,OVC,,0.00,0.0,WeatherDisplay:10.37,2013-01-16 01:04:00,
2013-01-15 17:09:00,37.5,31.0,30.68,SE,130,0.0,0.0,77,0.00,OVC,,0.00,0.0,WeatherDisplay:10.37,2013-01-16 01:09:00,
2013-01-15 17:14:00,37.2,30.7,30.68,SE,130,0.0,0.0,77,0.00,OVC,,0.00,0.0,WeatherDisplay:10.37,2013-01-16 01:14:00,
2013-01-15 17:19:00,37.0,30.8,30.68,SE,130,0.0,0.0,78,0.00,OVC,,0.00,0.0,WeatherDisplay:10.37,2013-01-16 01:19:00,
2013-01-15 17:24:00,36.8,30.6,30.68,SE,130,0.0,1.1,78,0.00,OVC,,0.00,0.0,WeatherDisplay:10.37,2013-01-16 01:24:00,
2013-01-15 17:29:00,36.6,30.4,30.68,SE,130,1.1,2.3,78,0.00,OVC,,0.00,0.0,WeatherDisplay:10.37,2013-01-16 01:29:00,
2013-01-15 17:34:00,36.4,30.2,30.68,SE,130,0.0,0.0,78,0.00,OVC,,0.00,0.0,WeatherDisplay:10.37,2013-01-16 01:34:00,
2013-01-15 17:39:00,36.1,30.2,30.68,SE,130,3.2,3.5,79,0.00,OVC,,0.00,0.0,WeatherDisplay:10.37,2013-01-16 01:39:00,
2013-01-15 17:44:00,35.9,30.0,30.68,SE,130,1.6,2.3,79,0.00,OVC,,0.00,0.0,WeatherDisplay:10.37,2013-01-16 01:44:00,
2013-01-15 17:49:00,35.7,29.8,30.68,SE,130,0.0,0.0,79,0.00,OVC,,0.00,0.0,WeatherDisplay:10.37,2013-01-16 01:49:00,
2013-01-15 17:54:00,35.6,30.1,30.68,SE,130,1.1,3.5,80,0.00,OVC,,0.00,0.0,WeatherDisplay:10.37,2013-01-16 01:54:00,
2013-01-15 17:59:00,35.4,29.9,30.68,SE,130,0.0,1.1,80,0.00,OVC,,0.00,0.0,WeatherDisplay:10.37,2013-01-16 01:59:00,
2013-01-15 18:04:00,35.2,29.7,30.68,SE,130,0.0,0.0,80,0.00,OVC,,0.00,0.0,WeatherDisplay:10.37,2013-01-16 02:04:00,
2013-01-15 18:09:00,35.1,29.6,30.68,SE,130,0.0,0.0,80,0.00,OVC,,0.00,0.0,WeatherDisplay:10.37,2013-01-16 02:09:00,
2013-01-15 18:14:00,34.9,29.7,30.68,SE,130,1.8,2.3,81,0.00,OVC,,0.00,0.0,WeatherDisplay:10.37,2013-01-16 02:14:00,
2013-01-15 18:19:00,34.8,29.6,30.68,ESE,122,1.8,3.5,81,0.00,OVC,,0.00,0.0,WeatherDisplay:10.37,2013-01-16 02:19:00,
2013-01-15 18:24:00,34.6,29.4,30.68,ESE,122,0.3,2.2,81,0.00,OVC,,0.00,0.0,WeatherDisplay:10.37,2013-01-16 02:24:00,
2013-01-15 18:29:00,34.5,29.3,30.68,ESE,122,0.0,0.0,81,0.00,OVC,,0.00,0.0,WeatherDisplay:10.37,2013-01-16 02:29:00,
2013-01-15 18:34:00,34.4,29.2,30.68,ESE,123,0.5,1.1,81,0.00,OVC,,0.00,0.0,WeatherDisplay:10.37,2013-01-16 02:34:00,
2013-01-15 18:39:00,34.3,29.4,30.68,ESE,111,0.0,0.0,82,0.00,OVC,,0.00,0.0,WeatherDisplay:10.37,2013-01-16 02:39:00,
2013-01-15 18:44:00,34.2,29.6,30.68,East,90,6.0,6.0,83,0.00,OVC,,0.00,0.0,WeatherDisplay:10.37,2013-01-16 02:44:00,
2013-01-15 18:49:00,34.2,29.6,30.68,East,89,3.1,4.6,83,0.00,OVC,,0.00,0.0,WeatherDisplay:10.37,2013-01-16 02:49:00,
2013-01-15 18:54:00,34.1,29.8,30.68,East,92,0.8,3.5,84,0.00,OVC,,0.00,0.0,WeatherDisplay:10.37,2013-01-16 02:54:00,
2013-01-15 18:59:00,34.1,29.8,30.68,East,92,1.1,2.3,84,0.00,OVC,,0.00,0.0,WeatherDisplay:10.37,2013-01-16 02:59:00,
2013-01-15 19:04:00,34.1,29.8,30.68,East,86,4.4,6.8,84,0.00,OVC,,0.00,0.0,WeatherDisplay:10.37,2013-01-16 03:04:00,
2013-01-15 19:09:00,34.0,29.7,30.68,East,85,0.9,2.3,84,0.00,OVC,,0.00,0.0,WeatherDisplay:10.37,2013-01-16 03:09:00,
2013-01-15 19:14:00,34.0,30.0,30.68,East,81,3.4,4.6,85,0.00,OVC,,0.00,0.0,WeatherDisplay:10.37,2013-01-16 03:14:00,
2013-01-15 19:19:00,34.0,30.0,30.68,East,86,3.5,4.6,85,0.00,OVC,,0.00,0.0,WeatherDisplay:10.37,2013-01-16 03:19:00,
2013-01-15 19:24:00,34.0,30.0,30.68,East,86,2.1,3.5,85,0.00,OVC,,0.00,0.0,WeatherDisplay:10.37,2013-01-16 03:24:00,
2013-01-15 19:29:00,34.0,30.0,30.68,East,86,2.4,4.6,85,0.00,OVC,,0.00,0.0,WeatherDisplay:10.37,2013-01-16 03:29:00,
2013-01-15 19:34:00,34.0,30.0,30.68,ENE,76,4.0,5.7,85,0.00,OVC,,0.00,0.0,WeatherDisplay:10.37,2013-01-16 03:34:00,
2013-01-15 19:39:00,33.9,29.9,30.68,ENE,76,3.8,3.8,85,0.00,OVC,,0.00,0.0,WeatherDisplay:10.37,2013-01-16 03:39:00,
2013-01-15 19:44:00,33.9,30.2,30.68,East,84,5.1,5.8,86,0.00,OVC,,0.00,0.0,WeatherDisplay:10.37,2013-01-16 03:44:00,
2013-01-15 19:49:00,33.9,30.2,30.68,East,83,1.2,3.5,86,0.00,OVC,,0.00,0.0,WeatherDisplay:10.37,2013-01-16 03:49:00,
2013-01-15 19:54:00,33.9,30.2,30.68,East,83,2.0,2.3,86,0.00,OVC,,0.00,0.0,WeatherDisplay:10.37,2013-01-16 03:54:00,
2013-01-15 19:59:00,33.9,30.2,30.68,East,83,3.2,3.5,86,0.00,OVC,,0.00,0.0,WeatherDisplay:10.37,2013-01-16 03:59:00,
2013-01-15 20:04:00,33.9,30.2,30.68,East,83,2.1,3.5,86,0.00,OVC,,0.00,0.0,WeatherDisplay:10.37,2013-01-16 04:04:00,
2013-01-15 20:09:00,33.9,30.2,30.68,East,83,3.3,3.5,86,0.00,OVC,,0.00,0.0,WeatherDisplay:10.37,2013-01-16 04:09:00,
2013-01-15 20:14:00,33.8,30.1,30.67,East,90,0.1,0.0,86,0.00,OVC,,0.00,0.0,WeatherDisplay:10.37,2013-01-16 04:14:00,
2013-01-15 20:19:00,33.8,30.1,30.67,East,90,0.0,1.1,86,0.00,OVC,,0.00,0.0,WeatherDisplay:10.37,2013-01-16 04:19:00,
2013-01-15 20:24:00,33.7,30.0,30.67,ESE,103,1.4,3.5,86,0.00,OVC,,0.00,0.0,WeatherDisplay:10.37,2013-01-16 04:24:00,
2013-01-15 20:29:00,33.7,30.0,30.67,ESE,113,2.1,4.6,86,0.00,OVC,,0.00,0.0,WeatherDisplay:10.37,2013-01-16 04:29:00,
2013-01-15 20:34:00,33.7,30.3,30.67,ESE,114,3.1,4.6,87,0.00,OVC,,0.00,0.0,WeatherDisplay:10.37,2013-01-16 04:34:00,
2013-01-15 20:39:00,33.8,30.4,30.67,ESE,121,3.5,4.5,87,0.00,OVC,,0.00,0.0,WeatherDisplay:10.37,2013-01-16 04:39:00,
2013-01-15 20:44:00,33.8,30.6,30.67,ESE,123,1.9,3.5,88,0.00,OVC,,0.00,0.0,WeatherDisplay:10.37,2013-01-16 04:44:00,
2013-01-15 20:49:00,33.8,30.6,30.67,ESE,123,1.3,2.3,88,0.00,OVC,,0.00,0.0,WeatherDisplay:10.37,2013-01-16 04:49:00,
2013-01-15 20:54:00,33.8,30.6,30.67,ESE,123,1.6,3.5,88,0.00,OVC,,0.00,0.0,WeatherDisplay:10.37,2013-01-16 04:54:00,
2013-01-15 20:59:00,33.7,30.5,30.67,ESE,107,3.2,3.5,88,0.00,OVC,,0.00,0.0,WeatherDisplay:10.37,2013-01-16 04:59:00,
2013-01-15 21:00:00,33.7,30.5,30.67,ESE,107,3.2,3.5,88,0.00,OVC,,0.00,0.0,WeatherDisplay:10.37,2013-01-16 05:00:00,
2013-01-15 21:01:00,33.7,30.5,30.67,ESE,107,2.6,3.5,88,0.00,OVC,,0.00,0.0,WeatherDisplay:10.37,2013-01-16 05:01:00,
2013-01-15 21:03:00,33.7,30.5,30.67,ESE,107,1.2,3.5,88,0.00,OVC,,0.00,0.0,WeatherDisplay:10.37,2013-01-16 05:03:00,
2013-01-15 21:08:00,33.7,30.5,30.67,ESE,107,3.2,4.5,88,0.00,OVC,,0.00,0.0,WeatherDisplay:10.37,2013-01-16 05:08:00,
2013-01-15 21:13:00,33.6,30.4,30.67,ESE,107,3.1,3.5,88,0.00,OVC,,0.00,0.0,WeatherDisplay:10.37,2013-01-16 05:13:00,
2013-01-15 21:18:00,33.5,30.1,30.67,ESE,107,2.0,2.3,87,0.00,OVC,,0.00,0.0,WeatherDisplay:10.37,2013-01-16 05:18:00,
2013-01-15 21:23:00,33.4,30.0,30.67,ESE,107,3.1,3.5,87,0.00,OVC,,0.00,0.0,WeatherDisplay:10.37,2013-01-16 05:23:00,
2013-01-15 21:28:00,33.3,29.9,30.67,ESE,107,2.7,3.5,87,0.00,OVC,,0.00,0.0,WeatherDisplay:10.37,2013-01-16 05:28:00,
2013-01-15 21:33:00,33.2,29.8,30.67,ESE,107,1.1,3.5,87,0.00,OVC,,0.00,0.0,WeatherDisplay:10.37,2013-01-16 05:33:00,
2013-01-15 21:38:00,33.1,29.7,30.67,ESE,107,2.6,3.5,87,0.00,OVC,,0.00,0.0,WeatherDisplay:10.37,2013-01-16 05:38:00,
2013-01-15 21:43:00,33.0,29.6,30.67,ESE,107,2.8,3.5,87,0.00,OVC,,0.00,0.0,WeatherDisplay:10.37,2013-01-16 05:43:00,
2013-01-15 21:48:00,32.8,29.4,30.67,ESE,107,2.9,3.5,87,0.00,OVC,,0.00,0.0,WeatherDisplay:10.37,2013-01-16 05:48:00,
2013-01-15 21:53:00,32.7,29.3,30.67,ESE,107,3.7,3.7,87,0.00,OVC,,0.00,0.0,WeatherDisplay:10.37,2013-01-16 05:53:00,
2013-01-15 21:58:00,32.6,29.2,30.67,ESE,107,3.0,3.5,87,0.00,OVC,,0.00,0.0,WeatherDisplay:10.37,2013-01-16 05:58:00,
2013-01-15 22:03:00,32.4,29.0,30.67,ESE,107,2.1,3.5,87,0.00,OVC,,0.00,0.0,WeatherDisplay:10.37,2013-01-16 06:03:00,
2013-01-15 22:08:00,32.4,29.0,30.67,ESE,107,2.1,2.3,87,0.00,OVC,,0.00,0.0,WeatherDisplay:10.37,2013-01-16 06:08:00,
2013-01-15 22:13:00,32.3,28.9,30.67,ESE,107,0.4,2.3,87,0.00,OVC,,0.00,0.0,WeatherDisplay:10.37,2013-01-16 06:13:00,
2013-01-15 22:18:00,32.2,28.8,30.67,ESE,107,2.1,3.5,87,0.00,OVC,,0.00,0.0,WeatherDisplay:10.37,2013-01-16 06:18:00,
2013-01-15 22:23:00,32.2,29.1,30.67,ESE,102,3.4,3.5,88,0.00,OVC,,0.00,0.0,WeatherDisplay:10.37,2013-01-16 06:23:00,
2013-01-15 22:28:00,32.2,29.1,30.67,ESE,102,0.0,1.1,88,0.00,OVC,,0.00,0.0,WeatherDisplay:10.37,2013-01-16 06:28:00,
2013-01-15 22:33:00,32.2,29.1,30.67,ESE,102,0.5,1.1,88,0.00,OVC,,0.00,0.0,WeatherDisplay:10.37,2013-01-16 06:33:00,
2013-01-15 22:38:00,32.3,29.2,30.67,ESE,112,1.6,3.5,88,0.00,OVC,,0.00,0.0,WeatherDisplay:10.37,2013-01-16 06:38:00,
2013-01-15 22:43:00,32.5,29.9,30.67,SE,126,6.1,6.9,90,0.00,OVC,,0.00,0.0,WeatherDisplay:10.37,2013-01-16 06:43:00,
2013-01-15 22:49:00,32.8,30.2,30.67,ESE,119,4.6,5.8,90,0.00,OVC,,0.00,0.0,WeatherDisplay:10.37,2013-01-16 06:49:00,
2013-01-15 22:54:00,33.0,30.4,30.67,ESE,119,4.4,4.6,90,0.00,OVC,,0.00,0.0,WeatherDisplay:10.37,2013-01-16 06:54:00,
2013-01-15 22:59:00,33.1,30.5,30.67,SE,126,5.1,5.8,90,0.00,OVC,,0.00,0.0,WeatherDisplay:10.37,2013-01-16 06:59:00,
2013-01-15 23:04:00,33.2,30.6,30.67,SE,125,4.5,4.6,90,0.00,OVC,,0.00,0.0,WeatherDisplay:10.37,2013-01-16 07:04:00,
2013-01-15 23:09:00,33.3,30.7,30.67,ESE,123,3.6,4.6,90,0.00,OVC,,0.00,0.0,WeatherDisplay:10.37,2013-01-16 07:09:00,
2013-01-15 23:14:00,33.3,31.0,30.67,ESE,106,3.0,4.5,91,0.00,OVC,,0.00,0.0,WeatherDisplay:10.37,2013-01-16 07:14:00,
2013-01-15 23:19:00,33.4,31.1,30.67,ESE,119,1.4,3.5,91,0.00,OVC,,0.00,0.0,WeatherDisplay:10.37,2013-01-16 07:19:00,
2013-01-15 23:24:00,33.5,31.2,30.67,ESE,117,0.8,2.3,91,0.00,OVC,,0.00,0.0,WeatherDisplay:10.37,2013-01-16 07:24:00,
2013-01-15 23:29:00,33.5,31.2,30.67,ESE,104,4.3,4.6,91,0.00,OVC,,0.00,0.0,WeatherDisplay:10.37,2013-01-16 07:29:00,
2013-01-15 23:34:00,33.5,31.2,30.67,East,94,3.8,4.6,91,0.00,OVC,,0.00,0.0,WeatherDisplay:10.37,2013-01-16 07:34:00,
2013-01-15 23:39:00,33.6,31.3,30.67,ESE,107,1.8,2.3,91,0.00,OVC,,0.00,0.0,WeatherDisplay:10.37,2013-01-16 07:39:00,
2013-01-15 23:44:00,33.6,31.3,30.67,ESE,107,1.5,3.4,91,0.00,OVC,,0.00,0.0,WeatherDisplay:10.37,2013-01-16 07:44:00,
2013-01-15 23:49:00,33.7,31.4,30.67,ESE,107,2.2,3.5,91,0.00,OVC,,0.00,0.0,WeatherDisplay:10.37,2013-01-16 07:49:00,
2013-01-15 23:54:00,33.7,31.4,30.67,ESE,107,2.9,3.5,91,0.00,OVC,,0.00,0.0,WeatherDisplay:10.37,2013-01-16 07:54:00,
2013-01-15 23:59:00,33.7,31.4,30.67,ESE,107,3.0,3.5,91,0.00,OVC,,0.00,0.0,WeatherDisplay:10.37,2013-01-16 07:59:00,